FENGYUN 1C DEB

Satellite information

Favourite Embed

Satellite Type and Status

DEBRISIN ORBIT

Key statistics

Satellite FENGYUN 1C DEB at a glance.

Uptime

9661

Days in orbit

Revolutions

≈ 14.6

Per day

Orbit

SSO

Sun Synchronous Orbit

Inclination

99.0

Latest

Satellite identification and parameters

Extended collection of information and parameters for FENGYUN 1C DEB.

Object identification

Identified? True

Debris? True

Object name: FENGYUN 1C DEB

International designator: 1999-025XJ

Object number (NORAD): 30249

Object ID (CCSDS): 30249

Country: PEOPLES REPUBLIC OF CHINA (PRC)

Current information (Y/N): Y

RCS size: SMALL

Orbital parameters

Period: 98.957 minutes

Inclination: 98.9617 deg

SMA: 7086.928 km

Apoapsis: 729.929 km

Periapsis: 687.657 km

RAAN: 94.3889 deg

Eccentricy: 0.00298241

Argument of periapsis: 205.498 deg

Mean anomaly: 261.3701 deg

Mean motion: 14.55176747 rev/day

Mean motion (dot): 0.00025818 rev/day2

B* drag term: 0.0059271887 1/REarth

Two-line elements (TLE)

Creation date: Oct. 21, 2025, 3:26 a.m.

Reference frame: TEME

Reference center: EARTH

Epoch: Oct. 20, 2025, 9:19 p.m. UTC

TLE line 0: 0 FENGYUN 1C DEB

TLE line 1: 1 30249U 99025XJ 25293.88838157 .00025818 00000-0 59272-2 0 9993

TLE line 2: 2 30249 98.9617 94.3889 0029824 205.4980 261.3701 14.55176747967946

Live tracking on map

Real-time ground track for satellite FENGYUN 1C DEB.

In-orbit conjunctions

A list of the most updated potential collisions computed for object FENGYUN 1C DEB.

Target Orbit TCA Probability of collision Miss distance Type
FENGYUN 1C DEB SSO 2025-05-29 13:54:52 0.000114575 163.0 (m) DEBRIS
CZ-6A DEB LEO 2025-01-21 14:01:19 0.0004142942 99.0 (m) DEBRIS
COSMOS 2251 DEB LEO 2024-11-12 00:37:17 0.000144281 209.0 (m) DEBRIS
IRIDIUM 63 LEO 2024-09-11 08:44:33 0.0001868376 437.0 (m) PAYLOAD

Associated space launch

Chinese polar orbiting meteorological satellite

FENGYUN 1C DEB was lifted into orbit during the mission ‘Long March 4B | Feng Yun 1C’, on board a Long March 4B space rocket.

The launch took place on May 10, 1999, 1:33 a.m. from Launch Complex 7.

For more information about the launch, click the button.

Launch to space Long March 4B | Feng Yun 1C
Long March 4B | Feng Yun 1C

Agency: N/A

Status: Launch Successful

Launch date: May 10, 1999, 1:33 a.m. UTC

Rocket: Long March 4B

Launch pad: Launch Complex 7

Location: Taiyuan Satellite Launch Center, People's Republic of China

...

Latest news about this satellite

There are no fresh news available about this satellite. Check back as we update our databases every day.


Newsletter sign-up

Weekly statistics, charts and insights to help you stay on top of the space industry.